Temp
85 89 91 83 72 76 74 71 80 73 75 80 82 81 80 81 77 66 87 90 92 92 91 88 83 84 84 84 84 84 84 84 84 84 85 84 84 84 84 83 84 84 85 84 84 83 83 84 84
89 87 84 83 70 70 72 77 73 74 72 83 81 79 80 75 81 79 79 90 93 94 95 92 82 83 84 84 84 84 84 84 84 84 83 84 84 84 84 84 84 83 85 84 83 83 85 85 85
88 85 78 79 74 69 70 77 76 72 76 76 76 78 75 69 78 81 88 91 93 94 95 89 83 83 84 84 84 84 84 84 84 84 83 83 82 82 83 84 84 84 84 84 84 84 85 85 84
86 85 85 76 74 77 76 78 71 69 69 72 77 71 73 78 79 82 90 93 94 95 96 85 83 84 84 84 84 84 84 84 84 84 84 83 84 82 84 84 85 85 85 84 84 84 84 84 84
90 84 78 76 76 79 83 83 83 77 77 74 81 66 65 75 78 83 88 93 94 96 96 92 83 84 84 84 84 84 84 84 84 84 83 84 84 84 84 84 85 85 85 85 85 85 84 84 84
82 83 79 75 76 81 84 86 85 82 82 82 79 77 71 72 74 76 84 88 95 95 96 94 83 84 84 84 84 84 84 84 84 84 84 84 84 85 85 84 85 85 85 85 84 84 84 84 84
77 79 78 79 77 78 81 88 84 83 81 81 86 76 75 71 77 79 80 88 95 97 96 94 92 85 84 84 84 84 84 84 84 84 83 84 84 85 85 85 85 85 85 85 84 84 84 84 83
84 82 78 81 78 76 84 86 88 85 82 91 89 76 72 81 84 85 85 89 90 93 91 91 92 88 91 90 84 84 84 84 84 84 84 84 84 85 85 84 85 85 85 85 84 84 84 84 83
85 79 81 80 80 80 86 84 89 89 84 85 86 86 89 86 84 85 84 86 84 86 88 95 95 87 91 93 88 85 84 84 84 85 84 84 91 92 90 85 84 85 85 85 84 84 84 84 84
82 82 80 86 87 85 87 87 85 83 83 81 83 87 88 86 86 84 85 78 86 85 85 91 95 90 94 95 90 91 89 94 94 92 89 93 92 91 94 88 85 85 85 85 84 84 83 84 95
86 80 83 85 86 86 86 86 89 85 80 85 81 83 85 86 85 84 84 79 86 90 88 96 91 92 94 92 93 94 95 94 92 88 88 92 93 90 92 86 84 88 86 92 89 89 89 90 95
83 84 86 85 86 85 84 89 85 86 84 89 88 87 86 85 86 82 78 83 82 87 92 94 92 89 91 92 92 94 95 94 94 92 87 78 88 90 88 85 79 80 86 91 93 90 88 83 88
86 86 86 87 86 87 87 85 83 81 85 90 87 86 86 87 85 82 80 81 77 77 90 90 90 85 89 87 92 92 93 93 94 92 92 92 93 85 89 79 84 77 85 93 90 88 91 88 91
89 88 88 89 87 88 84 83 85 80 86 85 84 85 86 85 83 85 85 83 84 78 84 90 92 89 86 88 88 90 91 93 93 93 93 88 90 84 81 78 76 89 80 85 92 88 91 91 92
88 84 89 88 88 86 88 79 77 81 84 82 83 83 84 80 83 83 82 80 77 76 81 92 92 90 83 84 88 89 92 92 92 93 90 88 85 85 84 79 77 87 85 88 90 87 90 91 93
86 88 82 86 87 86 88 73 77 83 81 72 75 75 79 81 82 79 78 79 77 77 78 83 91 86 90 89 90 92 93 92 92 92 93 89 87 86 85 79 75 86 88 91 87 84 90 92 92
85 80 81 83 88 86 86 76 78 83 81 74 72 74 77 81 83 85 82 82 80 79 84 84 87 91 92 89 90 90 89 87 86 92 92 90 89 88 87 79 79 78 78 90 89 79 88 90 92
78 79 84 81 86 86 82 78 79 82 82 78 76 78 80 84 86 88 89 91 93 92 88 84 90 89 89 90 87 90 90 91 93 93 93 90 89 88 88 83 85 82 77 85 90 85 90 91 90
86 84 83 86 87 83 84 81 79 81 83 82 82 84 86 87 90 90 91 93 94 93 90 86 86 88 88 88 87 87 88 90 91 93 91 90 90 88 86 87 85 86 85 79 82 84 84 88 91
87 84 85 86 85 83 79 81 82 81 83 84 85 85 86 88 89 89 90 92 93 92 91 90 88 88 88 91 90 91 90 92 92 93 91 90 90 88 90 87 77 80 86 82 85 85 81 83 90
89 86 86 84 86 87 86 73 73 78 84 86 89 89 90 88 89 89 90 91 93 91 91 90 89 89 88 89 91 89 89 88 88 90 90 91 89 89 87 88 87 79 80 83 84 85 83 82 86
85 90 87 85 85 81 89 75 79 79 79 83 87 89 90 90 92 92 91 92 93 93 92 92 90 88 89 88 89 86 88 87 91 91 93 92 90 90 89 88 87 85 83 84 84 88 85 83 84
86 89 86 85 85 84 83 82 81 83 78 82 87 90 92 92 93 93 93 94 95 95 94 93 90 88 88 88 86 89 85 92 93 93 89 87 90 90 90 89 88 87 84 86 85 85 82 85 86
91 88 86 87 86 77 81 82 82 84 84 86 89 92 93 95 94 95 97 97 96 98 96 95 90 87 87 87 86 85 86 88 90 90 90 91 93 93 89 89 88 86 84 85 82 85 85 82 87
90 89 79 74 76 74 84 81 83 88 90 93 92 93 94 97 97 95 95 97 95 95 95 95 92 86 86 87 87 86 86 86 86 87 90 90 93 93 90 87 87 84 85 82 81 79 83 83 84
89 90 80 65 74 76 83 77 82 90 94 95 97 98 98 97 98 98 97 97 97 95 94 92 91 87 86 86 86 87 87 90 91 90 90 94 94 95 92 90 89 88 84 79 80 76 82 85 84
87 85 92 83 84 78 81 83 90 93 93 95 95 96 95 95 96 98 99 99 97 95 94 91 87 85 85 87 87 87 87 87 91 90 91 93 92 94 91 89 88 87 84 83 74 73 77 83 84
90 91 83 85 69 67 77 78 79 85 88 93 94 92 94 96 96 96 97 97 97 97 95 93 89 86 86 87 88 90 90 89 88 89 87 89 92 90 90 87 87 87 85 83 81 76 77 83 84
87 86 87 87 82 73 71 76 93 88 92 92 94 93 93 95 94 93 92 93 93 96 95 94 92 90 89 89 89 91 92 92 90 90 89 88 89 89 87 86 86 86 85 84 81 82 80 81 81
89 86 88 79 75 83 80 76 94 94 94 93 92 93 91 91 92 91 90 91 92 91 92 94 94 93 94 93 88 86 91 90 92 90 91 91 88 88 87 86 86 86 86 84 83 81 80 81 79
MSLP
1010.56 1010.14 1009.64 1009.23 1008.36 1006.53 1005.36 1006.26 1006.52 1007.90 1008.38 1008.91 1009.08 1008.95 1009.17 1009.53 1010.10 1012.06 1012.98 1013.27 1013.54 1014.22 1015.16 1015.93 1016.21 1016.26 1016.55 1016.78 1016.91 1016.90 1017.00 1017.06 1017.15 1017.17 1017.23 1017.35 1017.50 1017.61 1017.79 1017.88 1017.93 1018.03 1018.05 1018.16 1018.36 1018.57 1018.57 1018.71 1018.85
1009.84 1010.09 1009.66 1008.03 1006.71 1004.93 1005.38 1006.32 1007.11 1008.54 1009.57 1009.24 1009.87 1010.02 1009.87 1010.81 1011.75 1012.77 1013.48 1013.44 1013.61 1014.09 1014.85 1015.62 1016.53 1016.54 1016.78 1016.99 1017.15 1017.18 1017.29 1017.37 1017.42 1017.39 1017.53 1017.60 1017.63 1017.72 1017.87 1018.01 1018.07 1018.25 1018.24 1018.37 1018.60 1018.87 1018.77 1018.95 1019.09
1010.04 1010.11 1008.54 1006.78 1005.49 1005.06 1005.38 1006.57 1008.02 1009.34 1009.90 1009.93 1010.30 1011.03 1011.54 1012.56 1012.85 1013.06 1013.14 1013.69 1013.84 1014.17 1014.75 1016.02 1016.71 1016.75 1016.99 1017.16 1017.30 1017.40 1017.44 1017.56 1017.56 1017.57 1017.76 1017.87 1017.86 1017.88 1017.98 1018.13 1018.30 1018.33 1018.54 1018.56 1018.73 1018.93 1018.97 1019.21 1019.48
1009.76 1009.21 1007.90 1005.81 1004.98 1005.52 1005.90 1006.90 1008.51 1009.45 1010.41 1010.64 1010.55 1011.51 1013.07 1013.54 1013.55 1013.71 1013.70 1013.74 1013.93 1014.34 1014.77 1016.53 1016.82 1016.97 1017.11 1017.28 1017.42 1017.55 1017.59 1017.61 1017.72 1017.81 1017.90 1018.03 1017.96 1018.12 1018.22 1018.33 1018.44 1018.54 1018.73 1018.88 1019.01 1019.18 1019.23 1019.48 1019.74
1009.23 1008.19 1006.03 1005.22 1005.11 1005.45 1005.80 1006.71 1007.53 1008.30 1009.08 1010.06 1010.23 1011.90 1013.59 1014.23 1014.49 1014.08 1014.29 1014.29 1013.98 1014.28 1015.13 1016.33 1017.15 1017.22 1017.35 1017.49 1017.62 1017.74 1017.77 1017.82 1017.91 1018.05 1018.14 1018.13 1018.18 1018.25 1018.49 1018.56 1018.79 1018.82 1018.97 1019.14 1019.27 1019.37 1019.60 1019.80 1019.91
1008.17 1007.39 1004.56 1004.18 1004.81 1005.35 1005.78 1006.36 1006.98 1007.62 1008.26 1008.94 1009.80 1011.13 1013.17 1014.50 1014.79 1014.69 1014.76 1014.76 1014.16 1014.42 1015.07 1016.01 1017.29 1017.39 1017.58 1017.70 1017.86 1017.97 1018.05 1018.15 1018.15 1018.12 1018.27 1018.30 1018.43 1018.44 1018.60 1018.89 1019.00 1019.07 1019.23 1019.42 1019.56 1019.70 1019.87 1020.01 1020.05
1007.83 1006.21 1004.57 1004.15 1004.44 1004.87 1005.49 1005.99 1006.17 1006.92 1007.79 1008.47 1008.83 1010.15 1012.63 1014.36 1014.39 1015.33 1015.05 1014.99 1014.46 1014.55 1014.88 1015.82 1016.62 1017.45 1017.72 1017.90 1018.03 1018.20 1018.25 1018.35 1018.44 1018.35 1018.42 1018.55 1018.62 1018.67 1018.77 1018.93 1019.06 1019.17 1019.38 1019.59 1019.78 1019.94 1020.10 1020.13 1020.21
1007.64 1006.48 1004.37 1003.98 1003.74 1004.67 1005.24 1005.66 1005.99 1006.44 1007.24 1007.97 1008.73 1009.35 1011.24 1012.57 1013.75 1014.84 1015.21 1015.12 1014.94 1014.99 1015.63 1015.90 1016.19 1017.07 1017.17 1017.71 1018.12 1018.39 1018.54 1018.57 1018.60 1018.65 1018.67 1018.71 1018.79 1018.83 1019.07 1019.21 1019.28 1019.36 1019.55 1019.71 1019.98 1020.18 1020.27 1020.34 1020.48
1007.86 1005.75 1003.65 1003.59 1003.51 1004.36 1005.04 1005.22 1005.90 1006.66 1007.38 1008.01 1008.71 1008.80 1009.50 1012.01 1013.79 1014.40 1014.74 1014.84 1015.80 1015.83 1015.78 1015.66 1016.02 1017.10 1016.98 1017.10 1017.98 1018.52 1018.66 1018.76 1018.70 1018.77 1018.84 1018.69 1017.97 1018.30 1018.82 1019.29 1019.46 1019.61 1019.73 1019.93 1020.16 1020.30 1020.38 1020.41 1020.54
1006.77 1004.87 1004.05 1004.23 1004.11 1004.17 1004.62 1004.78 1005.85 1006.38 1006.99 1007.89 1008.54 1009.24 1010.29 1011.78 1012.75 1013.52 1014.01 1014.91 1014.98 1015.55 1015.98 1015.59 1015.82 1016.59 1016.61 1016.77 1017.60 1017.67 1018.00 1017.85 1017.90 1018.13 1018.45 1018.16 1018.22 1018.34 1018.20 1019.16 1019.59 1019.75 1019.95 1020.06 1020.28 1020.35 1020.38 1020.18 1019.22
1005.57 1004.83 1004.80 1004.60 1004.85 1004.87 1004.66 1004.85 1005.53 1005.72 1006.53 1006.87 1008.15 1009.14 1010.49 1011.33 1012.19 1013.09 1014.03 1015.45 1014.79 1015.04 1015.82 1015.19 1015.94 1016.20 1016.39 1016.77 1017.32 1017.32 1017.37 1017.68 1018.04 1018.49 1018.57 1018.23 1018.23 1018.71 1018.67 1019.31 1019.65 1019.48 1019.82 1019.30 1019.84 1019.99 1019.96 1019.73 1019.37
1004.64 1005.04 1004.85 1004.79 1004.96 1004.96 1004.78 1004.77 1005.34 1005.83 1006.50 1006.98 1008.02 1009.21 1010.10 1011.02 1011.95 1012.96 1014.19 1014.82 1015.71 1015.02 1015.10 1015.38 1016.12 1016.70 1016.70 1017.04 1017.51 1017.25 1017.19 1017.65 1017.75 1017.88 1018.47 1019.19 1018.71 1018.38 1018.77 1019.27 1019.92 1019.97 1019.79 1019.42 1019.54 1019.81 1020.11 1020.46 1020.17
1004.05 1004.32 1004.59 1004.70 1004.86 1004.81 1004.98 1005.13 1005.87 1006.92 1007.36 1007.59 1008.69 1009.50 1010.28 1011.03 1012.15 1013.65 1014.59 1015.03 1015.81 1015.97 1015.36 1015.95 1016.25 1017.26 1017.10 1017.62 1017.34 1017.32 1017.36 1017.65 1017.55 1017.87 1018.03 1018.14 1017.85 1018.67 1018.77 1019.51 1019.65 1020.06 1019.85 1019.28 1019.46 1019.91 1019.62 1020.15 1019.90
1004.02 1003.86 1003.80 1003.99 1004.56 1004.66 1004.89 1005.65 1006.20 1007.73 1008.00 1008.55 1009.26 1009.89 1010.48 1011.10 1012.34 1013.15 1013.99 1014.70 1015.40 1016.19 1016.17 1016.10 1016.05 1016.61 1017.37 1017.36 1017.59 1017.55 1017.66 1017.49 1017.72 1017.67 1017.67 1018.45 1018.19 1018.74 1019.27 1019.61 1019.85 1019.07 1019.94 1019.87 1019.29 1019.70 1019.47 1019.57 1019.65
1003.71 1003.19 1002.87 1003.41 1004.00 1004.27 1004.83 1005.69 1006.84 1008.13 1008.63 1009.13 1009.69 1010.39 1010.95 1012.12 1012.87 1013.21 1014.00 1014.75 1015.77 1016.34 1016.27 1015.51 1015.94 1016.69 1017.49 1017.63 1017.53 1017.51 1017.32 1017.50 1017.42 1017.40 1017.92 1018.17 1018.46 1018.71 1018.78 1019.41 1019.90 1019.21 1019.43 1019.45 1019.55 1019.84 1019.64 1019.42 1019.50
1002.49 1002.16 1001.73 1002.93 1003.49 1004.13 1004.27 1005.36 1007.36 1008.35 1009.01 1010.21 1010.87 1011.35 1011.64 1011.92 1012.56 1013.41 1014.18 1014.83 1015.47 1015.94 1016.15 1016.48 1016.01 1016.73 1016.71 1016.92 1017.06 1016.99 1016.96 1017.05 1017.25 1017.35 1017.30 1017.84 1018.18 1018.51 1018.59 1019.24 1019.55 1019.13 1019.28 1018.88 1019.55 1019.93 1019.44 1019.04 1019.16
1001.44 1001.01 1001.43 1002.08 1003.02 1003.52 1004.00 1005.31 1007.30 1008.18 1008.86 1010.14 1011.06 1011.49 1011.54 1011.69 1012.27 1012.81 1013.65 1014.18 1014.74 1015.39 1015.63 1015.99 1015.85 1015.81 1016.02 1016.53 1016.77 1017.01 1017.04 1017.34 1017.60 1017.14 1017.20 1017.44 1017.89 1018.16 1018.31 1018.70 1019.24 1019.36 1019.35 1018.63 1019.00 1020.26 1019.65 1018.93 1018.81
1000.90 1000.87 1001.06 1001.48 1002.40 1003.06 1003.83 1005.15 1006.83 1007.77 1008.37 1009.41 1010.50 1010.87 1010.78 1010.67 1011.04 1011.79 1012.44 1012.96 1013.22 1013.77 1014.92 1015.43 1015.18 1015.73 1016.10 1016.28 1016.71 1016.63 1016.74 1016.73 1016.67 1016.59 1016.69 1017.10 1017.44 1017.85 1017.88 1018.34 1018.29 1018.87 1019.51 1018.89 1018.69 1019.51 1019.22 1018.92 1018.71
1001.17 1000.87 1000.61 1000.99 1002.16 1002.74 1002.91 1004.27 1005.93 1007.00 1007.54 1008.19 1008.89 1009.17 1009.40 1009.67 1010.12 1011.04 1011.70 1012.05 1012.45 1012.98 1013.81 1014.95 1015.24 1015.37 1015.82 1015.98 1016.05 1016.13 1016.05 1016.25 1016.26 1016.34 1016.64 1017.04 1017.12 1017.36 1017.77 1017.93 1018.17 1018.28 1018.58 1018.64 1018.93 1019.36 1019.44 1019.17 1018.97
1000.77 1000.46 999.85 1000.90 1001.93 1002.43 1003.10 1003.43 1005.18 1006.43 1006.89 1007.18 1007.55 1008.18 1008.50 1009.07 1009.64 1010.36 1010.98 1011.48 1011.80 1012.42 1013.15 1013.88 1014.54 1014.99 1015.46 1015.40 1015.64 1015.71 1015.83 1015.75 1015.78 1015.81 1016.27 1016.76 1016.88 1017.15 1017.30 1017.57 1018.37 1018.38 1018.00 1018.67 1018.71 1018.90 1019.28 1019.33 1018.89
999.59 999.83 999.93 1000.23 1000.76 1001.19 1001.39 1003.49 1004.92 1005.95 1006.31 1006.61 1006.84 1007.23 1007.73 1008.11 1008.57 1009.33 1010.03 1010.54 1011.15 1011.63 1012.23 1012.89 1013.71 1014.38 1014.93 1015.20 1015.31 1015.70 1015.94 1016.01 1015.90 1015.86 1016.10 1016.22 1016.55 1016.72 1017.11 1017.39 1017.46 1018.34 1018.41 1018.24 1018.37 1018.51 1018.91 1018.79 1018.87
999.35 1000.09 1000.12 1000.03 999.84 999.24 1000.37 1000.72 1002.89 1004.43 1005.22 1005.72 1005.87 1006.08 1006.58 1007.02 1007.60 1008.23 1009.06 1009.56 1009.96 1010.61 1011.63 1012.41 1013.27 1013.98 1014.50 1015.04 1014.97 1015.09 1015.05 1014.95 1014.87 1015.21 1015.32 1015.69 1016.07 1016.26 1016.51 1016.91 1017.35 1017.59 1017.81 1017.90 1017.87 1018.07 1018.56 1018.70 1018.54
999.91 1000.18 1000.01 999.90 999.30 999.28 999.61 999.39 1001.61 1002.84 1003.63 1004.17 1004.49 1004.70 1005.15 1005.70 1006.41 1006.95 1007.71 1008.39 1009.08 1009.97 1010.79 1011.73 1012.60 1013.37 1013.96 1014.29 1014.67 1014.70 1014.82 1014.39 1014.52 1014.67 1015.06 1015.55 1015.43 1015.75 1015.96 1016.14 1016.60 1017.02 1017.24 1017.25 1017.82 1017.98 1018.36 1018.47 1018.32
1000.16 999.91 999.64 999.34 998.84 998.04 999.33 999.22 999.61 1000.54 1001.55 1002.28 1003.06 1003.46 1003.98 1004.58 1005.50 1006.20 1006.86 1007.52 1008.15 1009.08 1009.96 1010.77 1011.83 1012.57 1013.24 1013.73 1014.19 1014.31 1014.21 1014.29 1014.11 1014.25 1014.52 1014.65 1014.66 1014.83 1015.29 1015.68 1016.01 1016.43 1016.69 1016.91 1017.42 1017.94 1018.18 1018.42 1018.14
999.80 998.41 997.55 997.61 997.51 997.74 999.13 998.89 999.35 1000.30 1000.94 1000.93 1001.62 1002.45 1003.16 1003.68 1004.34 1005.24 1005.79 1006.34 1007.22 1008.10 1008.96 1009.71 1010.65 1011.72 1012.50 1012.99 1013.31 1013.62 1013.83 1014.05 1013.98 1014.04 1013.98 1013.95 1013.79 1014.02 1014.50 1015.30 1015.60 1016.08 1016.19 1016.66 1017.29 1017.94 1018.14 1018.21 1018.21
998.76 998.29 997.46 997.48 997.02 997.56 999.21 998.45 999.70 1000.42 1000.73 1001.08 1001.24 1001.60 1002.21 1002.87 1003.49 1004.09 1004.76 1005.54 1006.23 1007.33 1008.22 1008.94 1009.67 1010.79 1011.75 1012.26 1012.57 1013.00 1013.32 1013.26 1013.11 1013.24 1013.39 1012.94 1012.97 1013.07 1013.66 1014.23 1014.63 1015.09 1015.71 1016.48 1016.83 1017.46 1017.82 1017.74 1018.03
998.98 998.44 998.67 997.90 998.36 997.66 998.05 999.26 999.56 1000.12 1000.50 1000.88 1001.26 1001.76 1002.29 1002.89 1003.18 1003.45 1003.73 1004.48 1005.43 1006.24 1007.31 1008.56 1009.56 1010.32 1011.14 1011.55 1012.15 1012.43 1012.68 1012.73 1012.19 1012.41 1012.75 1012.74 1012.62 1012.70 1013.07 1013.66 1014.14 1014.45 1015.01 1015.69 1016.24 1016.30 1016.67 1017.29 1017.41
999.41 999.41 998.42 997.89 997.69 997.53 997.69 998.38 997.24 999.52 1000.33 1000.73 1001.21 1002.07 1002.54 1003.10 1003.42 1003.82 1003.94 1004.33 1005.11 1005.78 1006.92 1008.08 1009.25 1009.94 1010.68 1011.17 1011.28 1011.46 1011.69 1012.01 1012.20 1012.41 1012.37 1012.29 1012.33 1012.72 1012.82 1013.52 1013.99 1014.30 1014.85 1015.37 1015.61 1016.09 1016.04 1016.19 1016.75
999.36 998.90 998.83 998.47 998.72 997.86 997.63 997.70 998.44 999.67 1000.20 1000.79 1001.63 1002.48 1003.05 1003.51 1004.06 1004.56 1004.93 1005.39 1005.73 1006.15 1006.91 1007.75 1008.60 1009.25 1009.82 1010.09 1010.32 1010.38 1010.65 1010.99 1011.46 1011.70 1011.82 1012.08 1012.26 1012.46 1013.03 1013.22 1013.53 1013.84 1014.32 1014.86 1015.27 1015.43 1015.79 1016.02 1016.08
1000.14 999.52 999.05 998.08 998.31 998.63 998.27 998.64 999.46 999.98 1000.55 1001.38 1002.01 1002.75 1003.86 1004.42 1004.78 1005.20 1005.60 1005.80 1006.28 1006.72 1007.18 1007.46 1007.99 1008.48 1008.75 1008.95 1009.70 1010.20 1010.32 1010.64 1010.53 1010.93 1011.13 1011.30 1011.67 1012.08 1012.54 1012.98 1013.25 1013.45 1013.85 1014.41 1014.77 1015.22 1015.38 1015.42 1015.65
Wind_Speed
11 10 4 4 5 5 3 4 5 10 9 3 9 2 8 10 3 4 13 11 19 18 17 14 11 14 14 13 12 12 11 10 9 8 8 8 7 7 7 7 8 9 13 15 15 15 16 16 15
7 7 4 3 5 3 6 7 7 8 6 9 8 3 6 8 9 12 14 17 19 17 17 16 12 14 14 12 11 11 10 10 8 8 8 6 6 7 10 9 11 11 13 13 14 15 16 15 15
5 5 6 3 4 10 9 9 13 10 9 6 5 6 5 5 6 15 16 20 18 17 15 17 13 14 13 12 11 10 10 10 6 9 9 7 6 7 12 13 13 13 13 14 15 15 15 15 14
4 4 5 3 11 10 11 10 17 12 4 0 5 7 7 4 10 6 20 19 18 16 15 16 14 14 13 11 11 10 10 9 8 9 9 10 11 13 15 15 13 14 13 14 13 14 14 16 14
3 4 5 6 10 9 10 12 14 10 10 12 10 7 4 4 5 15 17 16 18 16 16 16 13 14 12 11 10 11 9 9 7 9 10 11 12 14 13 14 14 13 13 13 13 14 13 13 13
5 4 3 9 10 8 8 9 10 9 9 14 8 11 7 8 13 12 13 10 16 16 17 16 13 13 12 11 9 9 9 8 9 9 11 11 11 13 13 12 13 13 14 13 13 12 10 9 10
5 6 7 7 9 8 8 9 6 9 9 12 8 10 8 13 16 16 16 14 15 15 15 15 15 11 12 10 9 7 7 8 7 8 9 10 11 10 11 12 12 13 12 12 11 11 10 9 11
6 4 3 2 5 8 7 9 6 6 9 12 10 8 10 20 23 20 16 16 12 11 12 11 12 11 12 11 9 7 6 6 7 6 8 7 8 11 10 8 9 11 11 10 9 9 9 8 9
3 7 4 6 2 7 10 8 7 5 11 6 9 2 16 25 25 21 19 16 13 11 11 15 13 11 9 10 9 7 6 4 5 7 5 8 6 10 11 10 9 10 10 8 8 6 6 7 8
6 5 5 6 6 5 8 8 11 9 12 8 8 8 23 28 26 24 21 15 19 17 14 13 13 12 10 7 9 6 5 6 2 3 4 3 4 4 4 8 8 10 10 8 7 5 3 9 7
2 5 4 3 5 5 0 5 8 6 9 11 13 20 24 27 24 23 20 18 16 18 15 15 12 10 10 7 5 4 4 4 5 4 4 3 3 6 3 3 4 7 10 8 9 8 2 3 2
2 2 2 2 0 1 1 2 2 2 7 4 14 21 26 25 24 22 15 19 15 13 15 13 13 7 7 5 6 4 3 4 3 5 5 1 5 5 5 3 4 2 2 3 1 3 4 4 2
5 3 3 1 2 3 2 5 6 4 4 7 16 21 24 23 22 17 17 12 12 10 11 11 11 10 8 6 4 4 3 4 4 4 6 6 4 2 5 3 6 2 3 4 4 3 3 2 7
10 8 8 5 7 3 5 9 3 7 6 13 17 20 20 21 20 20 19 19 17 10 12 13 12 10 6 8 5 4 5 4 5 4 3 6 5 4 4 4 3 6 5 4 4 4 4 3 3
6 5 3 5 8 4 11 8 8 8 9 12 15 15 17 19 18 15 14 13 12 9 8 9 9 10 9 8 8 6 5 6 5 4 6 6 5 4 6 4 4 6 5 7 3 5 4 5 4
5 7 5 7 6 5 9 7 7 8 11 11 13 13 15 18 20 10 10 12 12 10 10 11 9 9 12 11 8 6 5 4 5 5 4 6 5 5 4 5 3 4 7 6 7 4 5 5 6
3 9 8 5 4 4 7 9 10 10 12 14 13 13 14 17 19 20 18 15 14 13 16 13 9 13 11 10 7 7 5 6 5 5 5 5 6 5 5 5 7 6 3 5 5 4 8 5 4
17 15 13 7 6 6 5 8 12 12 12 15 15 15 16 16 19 20 21 22 24 17 14 10 11 10 9 6 7 7 6 7 6 6 6 4 5 7 6 4 5 6 4 8 8 9 7 5 4
15 13 11 7 6 5 4 10 14 15 13 15 15 17 18 18 17 18 19 20 20 19 18 16 13 11 9 9 8 8 8 7 7 7 5 5 5 6 5 4 5 5 6 4 6 6 7 7 5
9 9 6 8 4 7 2 5 11 14 13 14 16 16 17 18 19 18 21 22 21 19 17 16 15 13 11 9 8 7 7 8 7 6 6 6 5 5 6 6 4 4 4 7 9 9 4 8 6
8 6 10 9 1 4 6 9 9 11 11 12 14 16 17 20 21 22 23 23 22 21 21 18 16 15 13 12 8 6 6 5 6 7 7 8 8 8 5 7 7 5 7 4 8 9 10 6 6
14 7 5 7 9 4 7 7 10 13 15 14 15 16 19 21 22 22 23 25 25 23 20 18 17 16 14 13 10 12 9 9 7 7 6 6 9 9 8 9 8 8 7 8 7 8 8 8 7
6 4 5 5 6 6 5 4 9 11 13 15 18 19 20 22 23 23 24 24 24 22 19 18 18 16 16 14 14 11 12 9 7 7 6 8 8 9 9 9 9 9 7 7 8 8 9 8 6
1 4 3 3 5 4 5 8 11 5 4 15 18 19 19 19 21 21 21 21 21 20 19 18 18 18 17 16 15 15 14 11 9 8 8 8 8 8 11 10 10 9 9 7 6 9 10 9 8
9 14 5 6 6 10 4 6 10 8 8 5 14 16 17 17 17 18 20 20 19 19 20 19 19 17 17 18 17 18 17 15 14 12 10 10 8 7 9 10 10 8 8 6 5 5 9 9 9
5 11 6 4 1 11 2 3 8 5 6 8 8 7 9 11 12 14 17 18 19 19 20 17 16 16 17 17 18 15 15 12 12 12 12 10 10 9 8 9 10 10 5 5 7 1 7 9 9
5 8 10 6 3 8 7 7 10 9 12 11 11 10 11 7 5 6 12 15 16 17 19 19 15 13 14 17 14 15 15 16 13 12 12 11 11 9 10 11 11 10 11 10 8 7 8 10 11
7 5 7 7 4 6 9 4 11 14 13 10 11 11 11 9 9 10 7 6 8 12 14 16 16 16 15 15 14 14 15 15 14 13 14 13 12 12 9 11 11 10 11 13 14 9 9 12 9
4 9 3 5 5 7 8 6 12 13 11 11 11 10 10 10 11 10 10 9 9 8 8 11 13 15 15 16 15 15 13 14 13 13 14 14 13 12 12 11 11 12 12 14 15 13 11 12 10
2 6 11 8 8 2 10 9 8 6 8 7 8 9 10 9 10 11 12 12 11 9 7 7 8 10 11 11 11 9 12 13 13 13 14 13 13 13 12 12 11 11 12 13 15 14 10 14 13
Wind_Direction
178 192 234 215 236 242 70 80 84 119 130 91 109 158 127 12 26 59 135 145 148 147 137 153 134 127 121 119 120 119 119 122 122 122 124 130 130 137 143 135 116 110 107 107 109 115 115 118 117
172 179 230 242 270 119 82 113 114 77 89 128 101 65 161 83 54 114 134 152 151 148 148 141 135 126 125 126 129 121 118 111 110 104 113 119 126 146 142 134 118 114 107 110 109 114 108 110 109
160 253 262 270 354 42 69 85 115 108 120 158 124 37 16 67 102 141 132 146 155 149 150 119 146 129 132 135 133 124 108 105 95 91 108 112 121 142 140 123 117 111 108 105 110 110 114 109 104
198 211 232 266 66 60 79 116 128 136 110 64 117 82 90 328 123 154 145 153 151 148 145 131 148 137 138 139 125 121 110 105 99 95 104 102 98 110 122 118 115 115 110 106 104 108 109 104 105
228 240 199 85 80 74 84 133 155 157 155 168 184 119 77 96 105 141 140 161 151 153 138 147 152 142 138 136 130 127 115 101 107 111 114 114 108 114 119 116 116 113 108 103 104 108 118 117 108
248 264 186 85 87 99 107 132 141 138 146 154 180 135 125 130 143 132 149 179 159 152 148 141 148 147 142 137 128 117 116 101 97 100 118 109 117 123 116 114 117 113 106 104 104 104 105 116 121
284 271 74 103 107 101 132 154 144 140 146 163 145 146 115 148 163 150 162 189 164 157 149 155 152 156 147 143 140 132 119 114 101 107 100 109 124 119 119 119 116 114 112 111 111 107 103 116 133
281 264 223 54 82 93 139 166 151 149 135 126 167 170 167 164 153 154 167 166 180 150 150 148 160 168 164 155 153 143 128 121 115 96 117 122 118 117 115 122 128 119 116 116 116 112 111 113 139
279 246 89 65 51 116 154 166 140 109 142 164 178 191 135 150 162 158 173 160 161 171 186 169 159 160 180 154 140 161 146 134 134 145 110 183 147 164 173 92 133 123 123 126 119 114 119 136 138
252 286 41 27 44 60 158 174 151 163 161 154 161 119 138 156 169 169 170 168 174 168 181 186 159 181 169 163 159 182 147 176 154 115 173 196 120 96 67 123 140 135 127 133 127 134 162 222 148
11 360 14 11 349 341 227 192 168 187 189 170 166 148 158 163 169 170 185 171 178 172 185 174 159 177 171 159 187 185 183 155 171 188 204 133 162 175 179 128 116 165 177 176 184 171 330 341 252
223 27 289 326 69 256 271 108 205 227 30 12 154 160 162 169 171 170 181 174 170 200 180 164 169 175 197 164 201 201 207 185 223 185 151 200 179 208 138 138 134 124 218 121 201 92 194 170 83
294 15 267 235 320 325 207 168 94 70 15 149 147 161 167 172 166 166 166 182 170 216 170 177 174 175 195 202 206 228 228 205 224 214 194 231 234 179 169 25 135 147 213 187 156 212 159 159 158
327 310 287 240 233 186 139 126 223 71 97 126 152 162 168 170 174 171 174 187 179 196 185 190 191 174 183 219 214 217 233 232 240 224 214 208 250 165 169 170 133 201 159 228 152 190 168 181 142
310 308 105 196 201 150 129 122 79 108 130 134 149 162 167 155 190 175 171 173 175 182 198 206 180 183 191 218 217 221 227 223 237 233 200 221 227 216 174 158 202 189 213 196 177 192 193 190 185
301 222 33 110 171 147 238 103 131 143 132 137 156 167 176 175 182 172 157 181 182 171 174 201 204 197 198 208 211 229 214 251 210 225 220 211 219 233 189 149 180 201 201 202 151 250 203 205 174
113 352 21 90 201 160 246 119 151 162 144 147 166 171 188 179 177 183 181 191 197 174 187 199 205 204 208 201 218 222 228 223 242 224 245 209 227 211 213 177 176 226 259 206 170 180 245 186 209
328 337 343 12 121 226 182 122 159 172 163 158 168 181 186 186 180 184 187 187 193 185 181 196 200 214 202 205 210 220 229 234 236 241 238 233 226 222 209 192 180 190 182 213 185 210 198 249 204
312 309 317 33 116 245 197 151 174 177 176 163 174 179 180 188 176 177 188 187 191 197 187 196 214 201 199 199 204 207 219 222 232 236 225 228 242 243 224 190 177 192 209 233 193 202 203 231 193
311 302 356 106 115 202 166 140 165 182 188 179 174 185 182 185 180 183 188 196 200 198 204 207 214 208 208 208 214 223 225 228 230 227 220 230 243 241 217 204 172 238 241 185 204 203 185 250 188
277 314 348 343 313 204 228 131 159 196 204 190 189 186 190 191 190 190 193 196 202 207 208 212 213 216 215 231 209 207 236 239 225 226 226 221 229 235 226 227 233 192 264 208 209 204 211 200 203
295 14 313 305 295 25 338 110 136 167 194 196 195 194 196 199 202 195 200 204 209 211 212 216 213 212 214 216 225 217 225 229 227 233 225 230 225 232 230 225 219 221 220 238 219 212 198 236 203
14 11 329 308 265 253 112 261 101 153 180 194 203 199 205 202 205 207 206 209 213 210 209 212 212 212 218 205 223 216 228 242 237 235 236 222 237 226 226 228 233 230 223 216 224 228 200 196 210
275 235 236 224 260 191 56 290 98 94 122 178 193 208 209 208 207 214 213 213 214 212 210 208 206 210 208 213 210 224 236 238 252 227 233 231 226 213 212 219 223 230 237 212 194 226 217 238 207
233 252 230 203 196 54 78 236 53 84 106 107 173 197 207 213 209 212 219 213 213 213 210 212 204 206 210 213 215 218 228 231 237 236 236 253 230 219 216 214 225 216 225 221 190 223 247 216 224
323 321 318 277 343 108 164 122 86 74 103 127 116 136 171 196 211 217 216 220 215 204 213 208 210 202 207 212 219 223 228 231 233 232 239 237 233 220 209 206 224 225 201 162 172 148 253 223 222
116 240 19 292 180 262 94 113 132 128 119 116 117 119 103 98 135 196 209 208 213 207 203 205 207 201 208 213 220 228 229 235 246 243 237 241 233 232 212 203 212 204 198 192 178 180 215 246 226
303 359 233 203 268 289 132 214 111 140 130 128 103 100 94 90 73 70 66 128 171 195 196 199 202 209 211 215 218 225 230 232 241 243 236 243 244 230 211 205 211 209 200 198 197 201 203 207 222
234 215 217 313 312 307 239 139 114 145 135 119 120 110 90 83 81 83 89 97 111 129 160 186 197 206 213 214 221 226 230 230 228 237 234 235 236 232 230 215 209 206 203 203 203 210 209 217 204
318 320 273 281 163 318 313 92 127 126 131 119 114 107 92 80 88 94 95 100 109 116 141 163 181 203 215 222 219 238 235 243 234 229 239 225 227 222 225 225 222 212 208 204 211 213 213 209 201